Location: Red Deer
(52.2681°N, 113.8112°W)
Time: 20:16:29
(UTC-07:00)

N. Korean satellite - Pass Details

Date: 03 December 2022
Orbit: 407 x 441 km, 97.3° (Epoch: 05 February)

Event Time Altitude Azimuth Distance (km) Brightness Sun altitude
Rises 04:48:33 0° 30° (NNE) 2,527 10.6 -32.0°
Reaches altitude 10° 04:51:37 10° 60° (ENE) 1,637 9.9 -31.5°
Maximum altitude 04:53:16 13° 88° (E) 1,462 9.8 -31.3°
Drops below altitude 10° 04:54:55 10° 116° (ESE) 1,620 9.9 -31.0°
Sets 04:57:54 0° 146° (SSE) 2,476 10.5 -30.6°
